N738QS MMSM-MMMY

Flight info

Callsign N738QS
Flight time 1h 16m
Altitude 43000
Route AXIRI1Q AXIRI UT138 CVM UJ15E RETOS RETOS1A
Aircraft E55P/M-SBDFGHJ2RWY/LB2

Departure

Time 2026-04-22 21:05
Airport Felipe Ángeles International Airport (MMSM)

Arrival

Time 2026-04-22 22:22
Airport Monterrey International Airport (MMMY)
Time Latitude Longitude Altitude Speed Heading
2026-04-22 20:49 19.73057 -99.02696 7369 ft 0 kts 319°
2026-04-22 21:00 19.73058 -99.02697 7369 ft 0 kts 324°
2026-04-22 21:00 19.73062 -99.02697 7369 ft 0 kts 19°
2026-04-22 21:00 19.73063 -99.02691 7369 ft 1 kts 113°
2026-04-22 21:01 19.73052 -99.02679 7369 ft 3 kts 134°
2026-04-22 21:01 19.73031 -99.02655 7370 ft 5 kts 134°
2026-04-22 21:01 19.73004 -99.02615 7370 ft 6 kts 101°
2026-04-22 21:01 19.73027 -99.02572 7370 ft 7 kts 45°
2026-04-22 21:02 19.73066 -99.02525 7369 ft 8 kts 59°
2026-04-22 21:02 19.73049 -99.02470 7369 ft 8 kts 139°
2026-04-22 21:02 19.73003 -99.02428 7369 ft 8 kts 139°
2026-04-22 21:02 19.72956 -99.02385 7369 ft 8 kts 139°
2026-04-22 21:03 19.72912 -99.02346 7369 ft 7 kts 140°
2026-04-22 21:03 19.72875 -99.02312 7369 ft 6 kts 139°
2026-04-22 21:03 19.72867 -99.02292 7370 ft 4 kts 76°
2026-04-22 21:03 19.72881 -99.02274 7370 ft 2 kts 47°
2026-04-22 21:04 19.72884 -99.02271 7370 ft 0 kts 48°
2026-04-22 21:04 19.72893 -99.02260 7370 ft 12 kts 48°
2026-04-22 21:04 19.73095 -99.02015 7371 ft 75 kts 49°
2026-04-22 21:04 19.73570 -99.01433 7372 ft 129 kts 49°
2026-04-22 21:05 19.74249 -99.00606 7443 ft 161 kts 48°
2026-04-22 21:05 19.75035 -98.99626 7705 ft 185 kts 48°
2026-04-22 21:05 19.75938 -98.98535 8010 ft 211 kts 47°
2026-04-22 21:05 19.76954 -98.97301 8429 ft 230 kts 48°
2026-04-22 21:06 19.78090 -98.96071 8942 ft 242 kts 32°
2026-04-22 21:06 19.79570 -98.95151 9631 ft 248 kts 32°
2026-04-22 21:06 19.81003 -98.94152 10475 ft 246 kts 32°
2026-04-22 21:06 19.82441 -98.93149 11091 ft 256 kts 32°
2026-04-22 21:07 19.83979 -98.92071 11427 ft 276 kts 33°
2026-04-22 21:07 19.85596 -98.90931 12147 ft 280 kts 32°
2026-04-22 21:07 19.87356 -98.90165 12996 ft 276 kts
2026-04-22 21:07 19.89278 -98.90152 13787 ft 277 kts
2026-04-22 21:08 19.91190 -98.90092 14474 ft 281 kts
2026-04-22 21:08 19.93175 -98.90046 15153 ft 286 kts
2026-04-22 21:08 19.95176 -98.90000 15863 ft 290 kts 360°
2026-04-22 21:08 19.97208 -98.89952 16576 ft 293 kts 359°
2026-04-22 21:09 19.99258 -98.89905 17244 ft 297 kts 359°
2026-04-22 21:09 20.01329 -98.89858 17904 ft 302 kts 359°
2026-04-22 21:09 20.03423 -98.89806 18617 ft 303 kts 359°
2026-04-22 21:09 20.05553 -98.89758 19330 ft 304 kts 358°
2026-04-22 21:10 20.07665 -98.89707 19993 ft 307 kts 358°
2026-04-22 21:10 20.09794 -98.89659 20631 ft 310 kts 358°
2026-04-22 21:10 20.11976 -98.89608 21281 ft 312 kts 358°
2026-04-22 21:10 20.14130 -98.89555 21915 ft 314 kts 358°
2026-04-22 21:11 20.16332 -98.89504 22533 ft 316 kts 358°
2026-04-22 21:11 20.18520 -98.89453 23166 ft 318 kts 357°
2026-04-22 21:11 20.20732 -98.89399 23791 ft 319 kts 357°
2026-04-22 21:11 20.22968 -98.89376 24381 ft 319 kts 351°
2026-04-22 21:12 20.25074 -98.90084 24609 ft 324 kts 325°
2026-04-22 21:12 20.26791 -98.91674 24692 ft 338 kts 316°
2026-04-22 21:12 20.28600 -98.93341 24997 ft 347 kts 317°
2026-04-22 21:12 20.30427 -98.95004 25775 ft 341 kts 317°
2026-04-22 21:13 20.32205 -98.96617 26446 ft 339 kts 318°
2026-04-22 21:13 20.34035 -98.98196 27030 ft 339 kts 325°
2026-04-22 21:13 20.36284 -98.99049 27640 ft 344 kts 346°
2026-04-22 21:13 20.38665 -98.99332 28153 ft 348 kts 352°
2026-04-22 21:14 20.41122 -98.99431 28372 ft 359 kts 354°
2026-04-22 21:14 20.43610 -98.99435 28800 ft 362 kts 355°
2026-04-22 21:14 20.46143 -98.99399 29333 ft 361 kts 356°
2026-04-22 21:14 20.48703 -98.99348 29468 ft 371 kts 356°
2026-04-22 21:15 20.51310 -98.99290 29772 ft 376 kts 356°
2026-04-22 21:15 20.53934 -98.99227 30176 ft 377 kts 356°
2026-04-22 21:15 20.56531 -98.99164 30632 ft 377 kts 356°
2026-04-22 21:15 20.59172 -98.99099 31094 ft 376 kts 356°
2026-04-22 21:16 20.61831 -98.99037 31140 ft 387 kts 356°
2026-04-22 21:16 20.64540 -98.98972 31160 ft 397 kts 357°
2026-04-22 21:16 20.70201 -98.98834 31575 ft 406 kts 356°
2026-04-22 21:17 20.73006 -98.98763 32140 ft 400 kts 356°
2026-04-22 21:17 20.75764 -98.98700 32728 ft 395 kts 356°
2026-04-22 21:17 20.78500 -98.98635 33118 ft 394 kts 356°
2026-04-22 21:17 20.81228 -98.98564 33506 ft 394 kts 356°
2026-04-22 21:18 20.84008 -98.98498 33859 ft 396 kts 356°
2026-04-22 21:18 20.86775 -98.98430 34163 ft 398 kts 356°
2026-04-22 21:18 20.89523 -98.98367 34492 ft 399 kts 356°
2026-04-22 21:18 20.92294 -98.98296 35023 ft 396 kts 355°
2026-04-22 21:19 20.95069 -98.98227 35428 ft 396 kts 355°
2026-04-22 21:19 20.97833 -98.98165 35800 ft 397 kts 355°
2026-04-22 21:19 21.00582 -98.98096 36071 ft 399 kts 355°
2026-04-22 21:19 21.03377 -98.98032 36325 ft 402 kts 355°
2026-04-22 21:20 21.06179 -98.97961 36681 ft 402 kts 355°
2026-04-22 21:20 21.08991 -98.97890 37030 ft 402 kts 355°
2026-04-22 21:20 21.11797 -98.97823 37428 ft 401 kts 355°
2026-04-22 21:20 21.14578 -98.97756 37696 ft 404 kts 355°
2026-04-22 21:21 21.17410 -98.97692 37960 ft 406 kts 355°
2026-04-22 21:21 21.20227 -98.97620 38295 ft 406 kts 354°
2026-04-22 21:21 21.23070 -98.97549 38498 ft 409 kts 354°
2026-04-22 21:21 21.25918 -98.97481 38809 ft 410 kts 354°
2026-04-22 21:22 21.28771 -98.97413 39098 ft 411 kts 354°
2026-04-22 21:22 21.31643 -98.97347 39454 ft 410 kts 354°
2026-04-22 21:22 21.34482 -98.97277 39908 ft 407 kts 355°
2026-04-22 21:22 21.37326 -98.97204 40420 ft 404 kts 354°
2026-04-22 21:23 21.40138 -98.97140 40854 ft 402 kts 354°
2026-04-22 21:23 21.42932 -98.97068 41207 ft 402 kts 354°
2026-04-22 21:23 21.45698 -98.97002 41522 ft 402 kts 355°
2026-04-22 21:23 21.48524 -98.96935 41896 ft 401 kts 355°
2026-04-22 21:24 21.51311 -98.96867 42326 ft 398 kts 355°
2026-04-22 21:24 21.54076 -98.96798 42731 ft 396 kts 355°
2026-04-22 21:24 21.56835 -98.96732 42876 ft 400 kts 355°
2026-04-22 21:24 21.59623 -98.96662 42909 ft 402 kts 355°
2026-04-22 21:25 21.65111 -98.96525 42878 ft 390 kts 355°
2026-04-22 21:25 21.70535 -98.96394 42883 ft 392 kts 355°
2026-04-22 21:26 21.76035 -98.96261 42872 ft 394 kts 355°
2026-04-22 21:26 21.81510 -98.96127 42872 ft 396 kts 355°
2026-04-22 21:27 21.87040 -98.95991 42871 ft 397 kts 355°
2026-04-22 21:27 21.92571 -98.95854 42866 ft 398 kts 355°
2026-04-22 21:28 21.98136 -98.95720 42865 ft 404 kts 355°
2026-04-22 21:28 22.03800 -98.95576 42854 ft 402 kts 355°
2026-04-22 21:29 22.09372 -98.95441 42875 ft 402 kts 355°
2026-04-22 21:29 22.14983 -98.95305 42883 ft 403 kts 355°
2026-04-22 21:30 22.20639 -98.95164 42892 ft 405 kts 355°
2026-04-22 21:30 22.26255 -98.95025 42891 ft 406 kts 355°
2026-04-22 21:31 22.31941 -98.94884 42895 ft 407 kts 355°
2026-04-22 21:31 22.37606 -98.94745 42904 ft 408 kts 355°
2026-04-22 21:32 22.43257 -98.94604 42903 ft 406 kts 355°
2026-04-22 21:32 22.48924 -98.94465 42909 ft 406 kts 355°
2026-04-22 21:33 22.54566 -98.94323 42906 ft 405 kts 355°
2026-04-22 21:33 22.60170 -98.94186 42894 ft 401 kts 355°
2026-04-22 21:34 22.65770 -98.94048 42883 ft 402 kts 355°
2026-04-22 21:34 22.71346 -98.93908 42872 ft 402 kts 355°
2026-04-22 21:35 22.76952 -98.93768 42869 ft 402 kts 355°
2026-04-22 21:35 22.82528 -98.93629 42856 ft 400 kts 355°
2026-04-22 21:36 22.88112 -98.93493 42861 ft 400 kts 355°
2026-04-22 21:36 22.93672 -98.93353 42865 ft 400 kts 355°
2026-04-22 21:37 22.99242 -98.93215 42866 ft 398 kts 355°
2026-04-22 21:37 23.04767 -98.93079 42862 ft 398 kts 355°
2026-04-22 21:38 23.10315 -98.92937 42890 ft 398 kts 355°
2026-04-22 21:38 23.15857 -98.92797 42892 ft 399 kts 355°
2026-04-22 21:39 23.21399 -98.92658 42908 ft 400 kts 355°
2026-04-22 21:39 23.26966 -98.92519 42905 ft 400 kts 355°
2026-04-22 21:40 23.32534 -98.92407 42902 ft 396 kts 351°
2026-04-22 21:40 23.38004 -98.92911 42923 ft 394 kts 349°
2026-04-22 21:41 23.43464 -98.93408 42918 ft 395 kts 348°
2026-04-22 21:41 23.48971 -98.93920 42921 ft 395 kts 349°
2026-04-22 21:42 23.54446 -98.94422 42921 ft 395 kts 349°
2026-04-22 21:42 23.59911 -98.94920 42923 ft 394 kts 348°
2026-04-22 21:43 23.65394 -98.95422 42925 ft 395 kts 349°
2026-04-22 21:43 23.70902 -98.95920 42910 ft 397 kts 352°
2026-04-22 21:44 23.76316 -98.96534 42904 ft 393 kts 347°
2026-04-22 21:44 23.81785 -98.97218 42916 ft 394 kts 347°
2026-04-22 21:45 23.87244 -98.97868 42904 ft 395 kts 347°
2026-04-22 21:45 23.92733 -98.98519 42890 ft 396 kts 347°
2026-04-22 21:46 23.98223 -98.99167 42895 ft 396 kts 347°
2026-04-22 21:46 24.03694 -98.99811 42880 ft 395 kts 347°
2026-04-22 21:47 24.09155 -99.00459 42884 ft 394 kts 347°
2026-04-22 21:47 24.14584 -99.01289 42866 ft 385 kts 335°
2026-04-22 21:48 24.19610 -99.03200 42893 ft 385 kts 335°
2026-04-22 21:48 24.24688 -99.05153 42902 ft 385 kts 335°
2026-04-22 21:49 24.29747 -99.07105 42901 ft 386 kts 335°
2026-04-22 21:49 24.34803 -99.09060 42921 ft 386 kts 335°
2026-04-22 21:50 24.39846 -99.11009 42931 ft 383 kts 335°
2026-04-22 21:50 24.44891 -99.12961 42921 ft 384 kts 335°
2026-04-22 21:51 24.49959 -99.14928 42941 ft 385 kts 335°
2026-04-22 21:52 24.57503 -99.17847 42935 ft 382 kts 335°
2026-04-22 21:52 24.62512 -99.19800 42930 ft 382 kts 335°
2026-04-22 21:53 24.67520 -99.21744 42936 ft 382 kts 335°
2026-04-22 21:53 24.72543 -99.23698 42471 ft 391 kts 335°
2026-04-22 21:53 24.75123 -99.24702 41915 ft 390 kts 335°
2026-04-22 21:54 24.77667 -99.25692 41346 ft 384 kts 335°
2026-04-22 21:54 24.80164 -99.26664 40772 ft 377 kts 335°
2026-04-22 21:54 24.81780 -99.27293 40404 ft 374 kts 335°
2026-04-22 21:54 24.84211 -99.28243 39839 ft 372 kts 335°
2026-04-22 21:55 24.86689 -99.29211 39096 ft 385 kts 335°
2026-04-22 21:55 24.89228 -99.30203 38317 ft 388 kts 335°
2026-04-22 21:55 24.92634 -99.31531 37258 ft 389 kts 335°
2026-04-22 21:55 24.94328 -99.32194 36741 ft 390 kts 335°
2026-04-22 21:56 24.96874 -99.33189 35967 ft 394 kts 335°
2026-04-22 21:56 24.99471 -99.34203 35194 ft 399 kts 335°
2026-04-22 21:56 25.02088 -99.35226 34414 ft 404 kts 335°
2026-04-22 21:56 25.04751 -99.36269 33648 ft 408 kts 335°
2026-04-22 21:57 25.07428 -99.37314 32900 ft 410 kts 335°
2026-04-22 21:57 25.10130 -99.38374 32174 ft 414 kts 335°
2026-04-22 21:57 25.12851 -99.39441 31447 ft 414 kts 335°
2026-04-22 21:57 25.15563 -99.40502 30724 ft 416 kts 336°
2026-04-22 21:58 25.18329 -99.41589 30004 ft 429 kts 336°
2026-04-22 21:58 25.21079 -99.42693 29283 ft 413 kts 333°
2026-04-22 21:58 25.23624 -99.44020 28555 ft 401 kts 330°
2026-04-22 21:58 25.26163 -99.45328 27823 ft 400 kts 330°
2026-04-22 21:59 25.28667 -99.46628 27115 ft 400 kts 330°
2026-04-22 21:59 25.31161 -99.47920 26394 ft 397 kts 330°
2026-04-22 21:59 25.33655 -99.49209 25672 ft 395 kts 331°
2026-04-22 21:59 25.36143 -99.50497 24958 ft 394 kts 331°
2026-04-22 22:00 25.38616 -99.51781 24236 ft 389 kts 331°
2026-04-22 22:00 25.41043 -99.53038 23505 ft 386 kts 331°
2026-04-22 22:00 25.43464 -99.54296 22771 ft 383 kts 331°
2026-04-22 22:00 25.45833 -99.55522 22060 ft 371 kts 331°
2026-04-22 22:01 25.48111 -99.56704 21360 ft 360 kts 331°
2026-04-22 22:01 25.50371 -99.57878 20651 ft 351 kts 331°
2026-04-22 22:01 25.52535 -99.59003 19955 ft 347 kts 332°
2026-04-22 22:01 25.54724 -99.60143 19257 ft 343 kts 332°
2026-04-22 22:02 25.56859 -99.61253 18563 ft 335 kts 331°
2026-04-22 22:02 25.58950 -99.62342 17893 ft 328 kts 332°
2026-04-22 22:02 25.60958 -99.63384 17576 ft 312 kts 332°
2026-04-22 22:02 25.62878 -99.64386 17300 ft 302 kts 332°
2026-04-22 22:03 25.64786 -99.65382 17051 ft 306 kts 331°
2026-04-22 22:03 25.65069 -99.65529 17017 ft 307 kts 331°
2026-04-22 22:03 25.67009 -99.66541 16787 ft 308 kts 331°
2026-04-22 22:03 25.68949 -99.67551 16555 ft 308 kts 331°
2026-04-22 22:04 25.70888 -99.68562 16486 ft 305 kts 331°
2026-04-22 22:04 25.72812 -99.69563 16477 ft 307 kts 331°
2026-04-22 22:04 25.74736 -99.70568 16485 ft 307 kts 331°
2026-04-22 22:04 25.76698 -99.71603 16485 ft 307 kts 329°
2026-04-22 22:05 25.78248 -99.73122 16492 ft 301 kts 301°
2026-04-22 22:05 25.79330 -99.75112 16382 ft 304 kts 302°
2026-04-22 22:05 25.80471 -99.77069 16141 ft 302 kts 300°
2026-04-22 22:05 25.81600 -99.79035 15832 ft 301 kts 301°
2026-04-22 22:06 25.82695 -99.80944 15517 ft 289 kts 301°
2026-04-22 22:06 25.83760 -99.82799 15187 ft 280 kts 301°
2026-04-22 22:06 25.84805 -99.84618 14871 ft 281 kts 301°
2026-04-22 22:06 25.85854 -99.86446 14562 ft 283 kts 301°
2026-04-22 22:07 25.86915 -99.88300 14266 ft 284 kts 301°
2026-04-22 22:07 25.87979 -99.90157 13970 ft 282 kts 301°
2026-04-22 22:07 25.89025 -99.91987 13668 ft 281 kts 301°
2026-04-22 22:07 25.90066 -99.93805 13385 ft 280 kts 300°
2026-04-22 22:08 25.91112 -99.95636 13081 ft 281 kts 300°
2026-04-22 22:08 25.92154 -99.97461 12768 ft 280 kts 301°
2026-04-22 22:08 25.93194 -99.99280 12452 ft 279 kts 301°
2026-04-22 22:08 25.94238 -100.01109 12126 ft 278 kts 301°
2026-04-22 22:09 25.95259 -100.02896 11842 ft 278 kts 301°
2026-04-22 22:09 25.96301 -100.04722 11532 ft 279 kts 301°
2026-04-22 22:09 25.97342 -100.06543 11217 ft 279 kts 302°
2026-04-22 22:09 25.98369 -100.08346 10898 ft 279 kts 302°
2026-04-22 22:10 25.99417 -100.10182 10594 ft 279 kts 302°
2026-04-22 22:10 26.00447 -100.11989 10285 ft 273 kts 302°
2026-04-22 22:10 26.01445 -100.13741 9961 ft 265 kts 302°
2026-04-22 22:10 26.02255 -100.15163 9685 ft 258 kts 302°
2026-04-22 22:12 26.02996 -100.16466 9435 ft 253 kts 303°
2026-04-22 22:12 26.03935 -100.18113 9106 ft 247 kts 303°
2026-04-22 22:13 26.04740 -100.19728 8962 ft 236 kts 287°
2026-04-22 22:13 26.04671 -100.21515 8690 ft 235 kts 248°
2026-04-22 22:13 26.03624 -100.22847 8435 ft 233 kts 213°
2026-04-22 22:13 26.02239 -100.23792 8189 ft 235 kts 213°
2026-04-22 22:14 26.00826 -100.24761 7954 ft 237 kts 212°
2026-04-22 22:14 25.99429 -100.25706 7707 ft 237 kts 213°
2026-04-22 22:14 25.98000 -100.26671 7317 ft 238 kts 212°
2026-04-22 22:14 25.96578 -100.27628 6934 ft 239 kts 211°
2026-04-22 22:15 25.95155 -100.28584 6506 ft 241 kts 211°
2026-04-22 22:15 25.93722 -100.29548 6076 ft 242 kts 210°
2026-04-22 22:15 25.92290 -100.30512 5691 ft 241 kts 210°
2026-04-22 22:15 25.90853 -100.31473 5338 ft 240 kts 210°
2026-04-22 22:16 25.89398 -100.32376 4971 ft 237 kts 197°
2026-04-22 22:16 25.87854 -100.32332 4810 ft 217 kts 153°
2026-04-22 22:16 25.86850 -100.31228 4701 ft 199 kts 111°
2026-04-22 22:16 25.86528 -100.29757 4565 ft 195 kts 100°
2026-04-22 22:17 25.86279 -100.28268 4371 ft 198 kts 96°
2026-04-22 22:17 25.86172 -100.26744 4184 ft 196 kts 102°
2026-04-22 22:17 25.85709 -100.25352 3995 ft 190 kts 114°
2026-04-22 22:17 25.85121 -100.24073 3794 ft 186 kts 118°
2026-04-22 22:18 25.84474 -100.22817 3567 ft 184 kts 119°
2026-04-22 22:18 25.83838 -100.21616 3364 ft 180 kts 120°
2026-04-22 22:18 25.83582 -100.21139 3338 ft 173 kts 120°
2026-04-22 22:19 25.83111 -100.20276 3138 ft 171 kts 120°
2026-04-22 22:19 25.82475 -100.19158 2856 ft 166 kts 123°
2026-04-22 22:19 25.81875 -100.18147 2622 ft 149 kts 120°
2026-04-22 22:19 25.81387 -100.17214 2473 ft 130 kts 117°
2026-04-22 22:20 25.80794 -100.16103 2155 ft 122 kts 120°
2026-04-22 22:20 25.80504 -100.15569 2022 ft 121 kts 120°
2026-04-22 22:20 25.80067 -100.14770 1860 ft 121 kts 120°
2026-04-22 22:20 25.79637 -100.13970 1715 ft 119 kts 120°
2026-04-22 22:21 25.79209 -100.13192 1570 ft 121 kts 122°
2026-04-22 22:21 25.78774 -100.12397 1444 ft 118 kts 120°
2026-04-22 22:21 25.78356 -100.11621 1307 ft 115 kts 120°
2026-04-22 22:21 25.77970 -100.10917 1275 ft 95 kts 121°
2026-04-22 22:22 25.77660 -100.10351 1257 ft 78 kts 120°
2026-04-22 22:22 25.77416 -100.09888 1247 ft 46 kts 125°
2026-04-22 22:22 25.77269 -100.09700 1246 ft 26 kts 180°
2026-04-22 22:22 25.77146 -100.09798 1246 ft 20 kts 279°